Date,TemperatureHighF,TemperatureAvgF,TemperatureLowF,DewpointHighF,DewpointAvgF,DewpointLowF,HumidityHigh,HumidityAvg,HumidityLow,PressureMaxIn,PressureMinIn,WindSpeedMaxMPH,WindSpeedAvgMPH,GustSpeedMaxMPH,PrecipitationSumIn
2013-1-1,27.5,24.3,21.0,19.3,15.9,13.1,77,70,62,30.17,30.06,10,4,15,0.00
2013-1-2,28.4,25.8,21.7,23.3,19.6,13.5,81,77,70,30.15,30.08,9,5,15,0.00
2013-1-3,30.7,26.7,21.9,26.0,21.1,14.3,86,79,72,30.16,30.02,12,5,23,0.00
2013-1-4,34.3,31.1,27.9,27.5,25.1,21.9,83,78,73,30.16,30.02,18,12,24,0.00
2013-1-5,37.0,29.9,19.2,32.1,25.3,15.5,90,83,70,30.22,29.96,9,3,18,0.00
2013-1-6,36.1,34.9,32.7,33.8,30.8,25.4,92,85,72,30.26,29.84,10,6,18,0.14
2013-1-7,37.9,33.4,29.8,27.1,24.8,22.1,83,71,55,30.30,30.09,12,7,22,0.00
2013-1-8,39.4,33.9,28.9,31.4,27.4,24.4,84,77,70,30.18,30.08,7,4,11,0.00
2013-1-9,44.3,39.3,31.5,35.5,31.0,25.7,81,72,57,30.41,29.97,24,11,46,0.00
2013-1-10,45.5,34.3,24.8,33.5,27.6,21.2,88,77,57,30.52,30.08,6,2,11,0.17
2013-1-11,52.2,45.2,37.0,50.5,43.1,33.5,94,92,87,30.05,29.72,14,5,21,0.61
2013-1-12,56.7,48.8,39.0,50.5,42.6,34.3,92,80,61,29.96,29.76,18,7,29,0.03
2013-1-13,38.1,33.3,26.4,34.3,30.1,20.5,91,88,78,30.08,29.84,15,5,25,0.19
2013-1-14,27.5,23.6,18.9,20.4,18.0,14.4,85,79,72,30.41,30.11,16,6,25,0.00
2013-1-15,31.8,24.7,18.0,23.1,18.6,14.2,87,78,67,30.40,30.14,7,2,16,0.00
2013-1-16,35.9,29.0,17.8,30.5,23.1,13.8,86,79,62,30.13,29.77,20,8,32,0.00
2013-1-17,35.6,28.5,21.7,30.3,19.1,9.9,81,68,58,30.33,29.97,15,7,24,0.00
2013-1-18,39.9,28.7,17.7,30.6,19.1,9.0,79,67,60,30.38,29.89,14,7,25,0.00
2013-1-19,45.0,42.0,39.6,37.5,33.9,24.4,78,73,51,29.88,29.59,23,13,39,0.00
2013-1-20,37.6,19.8,17.1,23.7,11.9,9.3,78,71,55,30.19,29.65,25,10,46,0.00
2013-1-21,18.5,12.4,3.9,12.7,7.0,-1.7,84,79,73,30.15,30.01,16,8,29,0.00
2013-1-22,11.1,5.9,1.6,3.9,-0.3,-5.0,80,75,70,30.27,30.15,10,5,17,0.00
2013-1-23,20.7,13.4,4.1,15.7,8.6,-0.7,85,81,78,30.28,30.04,8,3,15,0.00
2013-1-24,18.9,11.9,2.7,9.5,4.8,-1.6,84,74,61,30.60,30.17,3,1,7,0.00
2013-1-25,23.9,19.2,14.5,19.0,13.3,6.2,86,78,69,30.44,29.95,9,3,15,0.00
2013-1-26,29.7,25.5,21.9,22.7,19.7,17.2,86,79,68,30.40,30.04,9,4,15,0.00
2013-1-27,32.2,27.9,22.5,29.3,22.1,18.1,90,79,66,30.42,30.03,9,5,15,0.00
2013-1-28,42.8,36.3,31.8,41.2,33.8,29.3,94,91,87,30.02,29.82,10,4,19,0.11
2013-1-29,56.7,46.3,31.5,55.2,44.6,29.1,95,94,91,29.96,29.41,9,4,18,2.13
2013-1-30,53.2,41.5,26.4,51.6,39.6,22.8,95,93,86,29.44,29.14,16,6,29,0.50
2013-1-31,26.4,21.4,16.7,22.8,17.5,12.9,87,85,80,29.87,29.36,16,11,26,0.00
2013-2-1,18.1,16.5,13.5,14.4,12.1,9.8,87,83,75,30.17,29.88,16,8,22,0.00
2013-2-2,19.8,15.6,6.1,14.8,10.6,1.8,87,81,70,30.10,29.94,5,2,8,0.00
2013-2-3,21.3,15.5,5.4,16.7,11.2,1.1,86,83,76,29.97,29.83,13,3,22,0.00
2013-2-4,24.6,19.0,11.3,18.2,14.1,6.9,86,81,73,29.96,29.84,3,1,7,0.00
2013-2-5,30.7,19.7,5.2,27.3,15.7,0.9,88,84,79,29.96,29.72,10,4,16,0.00
2013-2-6,33.3,25.8,12.7,24.2,19.8,9.3,89,78,68,30.20,29.97,8,2,11,1.43
2013-2-7,34.0,31.2,28.9,31.6,26.8,22.3,92,84,73,30.16,29.83,6,3,12,0.00
2013-2-8,34.3,29.3,19.6,29.2,23.7,14.7,92,80,63,30.32,29.83,7,4,15,0.05
2013-2-9,33.4,20.1,4.1,23.1,13.8,-0.2,85,77,64,30.38,30.16,8,2,14,0.03
2013-2-10,42.1,28.9,15.3,40.0,25.0,11.8,92,85,76,30.15,29.53,10,4,17,0.30
2013-2-11,43.2,36.8,31.8,41.0,32.7,25.4,92,85,77,29.84,29.46,21,14,31,0.03
2013-2-12,31.8,30.2,28.4,26.0,24.7,23.0,82,80,76,30.00,29.85,13,8,23,0.00
2013-2-13,38.5,31.9,24.8,31.1,27.0,20.9,88,82,74,29.88,29.68,7,3,10,0.44
2013-2-14,41.2,33.0,26.6,35.9,29.7,23.5,92,87,79,29.86,29.58,15,6,23,0.08
2013-2-15,28.9,26.1,22.8,23.5,19.0,15.5,83,75,65,30.11,29.87,9,5,17,0.00
2013-2-16,23.2,20.3,14.5,18.4,14.7,10.0,86,79,69,30.06,29.98,9,4,15,0.00
2013-2-17,26.1,17.1,6.8,14.5,9.6,2.5,84,73,60,30.17,30.06,6,2,12,0.00
2013-2-18,46.0,34.4,21.0,41.3,25.4,12.4,88,70,59,30.07,29.42,12,7,22,0.11
2013-2-19,44.1,27.6,18.5,41.0,24.0,14.2,90,86,81,29.93,29.34,20,14,31,0.08
2013-2-20,24.6,21.0,17.6,18.1,14.5,12.1,82,76,69,30.24,29.93,13,9,22,0.00
2013-2-21,27.9,24.4,21.4,20.0,17.7,14.9,79,75,68,30.32,30.14,8,4,18,0.00
2013-2-22,34.0,27.5,21.7,31.9,24.2,15.9,92,87,78,30.13,29.80,10,5,19,0.00
2013-2-23,32.9,30.5,27.5,30.6,26.9,24.1,91,86,78,29.87,29.78,13,7,20,0.00
2013-2-24,38.2,31.9,25.5,29.6,26.1,21.6,89,80,63,30.11,29.85,10,4,20,0.11
2013-2-25,40.5,29.8,17.6,29.4,23.1,14.1,87,77,60,30.18,30.04,3,1,6,0.00
2013-2-26,36.3,32.6,28.8,32.3,26.7,22.5,92,79,68,30.08,29.51,12,6,19,0.00
2013-2-27,38.1,35.4,34.2,36.3,33.4,32.1,93,92,91,29.59,29.45,5,2,10,0.30
2013-2-28,38.3,35.0,31.8,33.1,30.8,26.0,93,84,77,29.96,29.58,8,5,15,0.03
2013-3-1,31.5,28.4,23.2,26.0,21.0,16.4,80,74,66,30.12,29.96,6,3,11,0.00
2013-3-2,30.7,23.9,16.7,20.0,16.2,11.9,82,72,62,30.13,30.03,8,2,15,0.00
2013-3-3,32.7,24.9,15.5,19.4,16.1,10.7,83,70,54,30.06,29.97,8,3,14,0.00
2013-3-4,34.7,25.5,12.0,20.0,15.6,7.3,83,67,47,30.14,30.03,3,1,7,0.00
2013-3-5,35.1,27.5,21.0,24.8,19.8,14.6,83,73,65,30.07,29.83,9,5,17,0.00
2013-3-6,39.4,33.1,28.4,30.4,27.9,23.9,86,81,70,30.19,29.91,8,4,13,0.00
2013-3-7,37.2,34.1,26.8,30.1,25.7,20.2,84,72,58,30.37,30.18,9,4,16,0.00
2013-3-8,40.6,30.7,19.6,26.8,22.0,15.0,85,71,55,30.49,30.34,7,1,10,0.00
2013-3-9,43.5,35.3,24.4,34.0,27.4,20.0,86,74,58,30.33,29.93,10,3,17,0.00
2013-3-10,47.3,43.4,37.1,44.3,39.8,32.4,93,87,76,29.93,29.67,6,2,10,0.28
2013-3-11,51.3,44.8,36.1,48.5,42.0,33.7,94,90,81,29.67,29.46,15,6,28,0.20
2013-3-12,36.1,33.7,30.4,33.8,29.2,25.8,91,83,75,29.85,29.62,15,9,23,0.03
2013-3-13,33.1,29.1,24.6,26.0,20.4,15.4,86,71,53,30.19,29.85,15,8,26,0.00
2013-3-14,40.5,31.7,21.7,25.7,21.1,16.4,84,65,47,30.22,30.05,10,4,17,0.00
2013-3-15,40.1,36.9,33.4,35.0,32.3,25.4,89,83,72,30.04,29.80,12,5,20,0.00
2013-3-16,36.3,31.3,27.5,30.0,24.9,19.7,90,78,57,30.03,29.73,8,5,18,0.11
2013-3-17,31.1,28.6,24.8,22.0,17.1,13.2,75,62,51,30.22,30.02,8,4,14,0.00
2013-3-18,35.1,30.1,22.8,32.2,24.9,15.8,90,81,68,30.12,29.54,15,5,30,0.00
2013-3-19,33.4,26.1,22.5,30.0,20.7,15.5,88,80,64,29.91,29.57,22,12,35,0.00
2013-3-20,26.1,23.0,14.9,18.5,15.4,10.4,84,72,64,29.93,29.87,15,8,26,0.00
2013-3-21,32.7,25.4,15.3,26.0,19.8,11.3,87,79,68,29.94,29.85,13,7,21,0.00
2013-3-22,37.4,31.8,27.5,26.7,23.1,20.0,78,70,62,30.00,29.93,10,6,16,0.03
2013-3-23,38.3,31.9,25.7,27.2,24.2,20.4,83,73,62,30.10,30.00,7,2,9,0.00
2013-3-24,38.7,32.1,26.2,27.5,24.4,21.2,85,74,60,30.01,29.68,9,4,20,0.00
2013-3-25,40.5,35.3,32.0,28.6,26.5,23.3,77,70,60,29.95,29.63,9,6,20,0.00
2013-3-26,42.6,36.7,32.4,35.3,30.1,26.6,86,77,64,30.10,29.95,9,4,18,0.00
2013-3-27,45.5,40.0,31.5,31.4,28.7,24.9,89,65,52,30.21,30.14,13,8,21,0.00
2013-3-28,49.8,38.6,29.7,31.1,26.5,21.7,86,64,42,30.26,30.20,12,4,20,0.00
2013-3-29,50.9,38.2,25.2,33.6,25.6,19.6,84,62,37,30.26,30.18,9,3,16,0.00
2013-3-30,58.1,41.4,26.1,34.3,27.9,21.9,88,63,34,30.19,29.85,8,3,19,0.00
2013-3-31,49.1,44.4,37.8,41.0,37.5,30.5,89,77,58,29.84,29.64,15,8,24,0.03
2013-4-1,37.6,31.7,27.9,31.3,19.2,15.3,82,60,49,30.06,29.74,13,8,22,0.00
2013-4-2,39.2,32.2,22.8,23.8,17.6,15.0,80,57,38,30.23,30.05,14,6,22,0.00
2013-4-3,44.8,34.0,23.2,22.5,18.3,15.5,79,55,33,30.40,30.21,9,3,17,0.00
2013-4-4,53.1,40.2,24.1,26.5,22.5,17.6,82,52,31,30.29,29.93,13,5,20,0.00
2013-4-5,49.9,41.7,31.5,27.9,22.1,16.4,72,48,29,30.16,29.93,8,4,14,0.00
2013-4-6,58.8,47.3,36.1,41.6,26.1,16.4,63,44,33,30.16,29.65,14,7,24,0.00
2013-4-7,55.6,46.3,35.6,48.1,37.6,29.1,85,72,60,30.00,29.54,16,8,24,0.05
2013-4-8,51.6,41.8,32.9,49.0,37.8,27.8,92,85,77,29.98,29.62,18,5,28,0.44
2013-4-9,47.7,43.7,41.5,45.7,41.7,39.1,93,92,91,30.02,29.84,6,2,13,1.63
2013-4-10,43.3,41.3,38.9,41.2,38.3,33.2,93,89,80,29.99,29.77,9,5,18,0.39
2013-4-11,39.7,37.4,36.3,35.4,34.4,32.1,91,89,75,29.94,29.62,13,8,31,1.05
2013-4-12,42.8,38.0,34.7,38.6,35.3,32.5,94,90,81,29.73,29.53,15,7,26,0.19
2013-4-13,41.2,37.9,36.3,36.2,32.4,28.7,92,81,62,29.93,29.73,18,10,31,0.11
2013-4-14,47.7,39.2,31.1,40.8,34.0,27.7,90,82,71,30.05,29.81,8,4,16,0.03
2013-4-15,66.0,54.4,43.2,55.1,47.6,36.8,90,78,67,29.90,29.77,13,6,21,0.44
2013-4-16,53.4,47.9,42.8,46.1,38.8,34.4,92,72,52,30.22,29.90,12,6,20,0.36
2013-4-17,53.2,46.1,41.6,42.0,37.1,32.6,90,72,52,30.30,29.95,10,5,17,0.80
2013-4-18,63.1,54.4,44.7,60.4,51.9,42.0,95,92,82,29.96,29.42,17,6,31,1.91
2013-4-19,62.6,40.9,35.2,58.2,35.8,30.6,89,82,71,29.72,29.40,25,16,44,0.34
2013-4-20,39.9,34.5,30.0,30.6,23.2,18.9,82,64,51,30.40,29.73,15,8,26,0.00
2013-4-21,53.2,39.9,26.0,31.7,25.9,20.4,84,60,39,30.54,30.35,9,4,18,0.00
2013-4-22,65.5,51.8,35.6,36.4,32.0,28.2,78,50,29,30.36,30.10,7,4,13,0.00
2013-4-23,64.2,52.0,42.9,50.4,42.0,33.2,90,70,48,30.10,29.83,8,4,14,0.08
2013-4-24,47.8,40.5,35.4,39.1,31.7,27.0,90,73,46,30.06,29.85,15,6,21,1.98
2013-4-25,50.5,42.8,36.9,39.1,33.1,27.1,89,69,48,30.28,29.98,14,7,23,0.20
2013-4-26,39.3,35.3,33.4,31.0,29.7,28.8,85,80,72,30.32,30.28,1,0,3,0.00
2013-4-27,71.4,65.2,48.4,48.2,41.8,35.9,80,44,30,30.26,30.05,7,4,13,0.00
2013-4-28,71.1,58.8,50.2,55.1,45.9,38.8,81,63,54,30.04,29.81,8,2,14,0.00
2013-4-29,74.1,63.0,49.1,56.8,52.4,45.9,91,70,48,29.91,29.81,9,3,13,1.74
2013-4-30,79.0,67.2,57.7,62.1,57.2,52.5,88,71,55,29.95,29.83,15,8,25,0.58
2013-5-1,85.5,75.1,60.3,61.2,57.7,54.4,82,57,37,30.17,29.96,9,5,20,0.00
2013-5-2,83.7,71.3,60.1,60.8,56.8,52.5,77,62,41,30.18,30.04,8,2,13,0.00
2013-5-3,80.8,68.4,55.4,59.1,53.7,50.1,86,63,37,30.09,29.96,13,4,20,0.00
2013-5-21,78.6,71.3,64.8,69.0,58.2,7.7,91,71,10,29.77,29.69,16,6,33,0.58